z/d,0,0,50,50,100,100,200,200,300,300,400,400,500,500,750,750,1000,1000,2000,2000,3000,3000,4000,4000,4700,4700
2016.11.07-01:00,.46,94.86,.69,71.71,.78,78.99,.97,73.73,1.02,68.61,.96,75.15,.81,64.99,.67,74.98,.44,67.49,.38,48.79,.19,47.63,.20,36.04,.03,90.00
2016.11.07-02:00,.44,85.73,.68,68.17,.77,76.48,.97,73.57,1.04,69.75,.97,75.74,.86,64.42,.67,73.48,.44,63.57,.39,47.71,.20,48.95,.22,39.40,.04,90.00
2016.11.07-03:00,.47,75.24,.69,64.72,.77,74.18,.98,73.37,1.05,70.80,.97,76.38,.89,64.37,.67,72.08,.45,59.28,.41,46.73,.20,50.40,.22,41.84,.04,90.00
2016.11.07-04:00,.50,70.70,.73,63.39,.79,73.21,.98,73.20,1.05,71.62,.95,76.74,.91,64.64,.66,71.18,.47,55.31,.42,45.84,.20,51.21,.22,43.08,.04,90.00
2016.11.07-05:00,.52,70.41,.76,64.03,.80,73.27,.98,72.51,1.04,71.66,.92,76.13,.91,64.89,.64,70.88,.49,52.67,.43,45.71,.19,51.66,.20,43.73,.03,90.00
2016.11.07-06:00,.52,74.03,.76,65.71,.79,73.61,.97,70.93,1.02,70.62,.88,74.15,.90,65.03,.62,71.16,.52,51.71,.43,46.40,.17,50.74,.18,42.89,.03,90.00
2016.11.07-07:00,.47,77.15,.75,68.50,.78,74.15,.97,69.00,1.01,69.15,.85,71.19,.89,65.47,.59,71.81,.54,52.17,.44,47.97,.15,48.02,.16,40.14,.02,90.00
2016.11.07-08:00,.44,82.68,.73,71.94,.77,74.90,.97,67.63,1.00,68.16,.84,68.28,.88,66.62,.56,72.34,.56,53.52,.44,50.22,.14,43.68,.14,35.42,.01,90.00
2016.11.07-09:00,.38,86.87,.69,74.72,.74,75.32,.98,67.12,1.00,67.98,.84,66.10,.88,68.33,.52,71.90,.56,55.41,.44,52.96,.14,39.62,.14,30.38,.01,90.00
2016.11.07-10:00,.29,84.37,.65,75.98,.72,74.90,.98,67.41,1.01,68.59,.86,64.89,.88,70.20,.50,69.46,.56,57.44,.44,55.73,.15,37.45,.14,27.44,.00,90.00
2016.11.07-11:00,.22,70.66,.61,75.61,.69,73.89,.99,68.58,1.02,70.02,.89,64.95,.89,72.16,.49,65.33,.55,59.32,.44,58.31,.16,37.94,.15,28.33,.01,90.00
2016.11.07-12:00,.21,46.60,.56,72.46,.67,71.82,1.00,70.19,1.04,71.85,.92,65.96,.91,73.96,.52,60.73,.55,60.75,.44,60.50,.18,40.02,.16,31.87,.01,90.00
2016.11.07-13:00,.25,22.85,.53,65.51,.65,68.22,1.00,71.79,1.06,73.81,.96,67.70,.93,75.67,.56,57.42,.56,62.09,.42,62.40,.19,42.32,.17,35.40,.02,90.00
2016.11.07-14:00,.33,15.18,.53,58.29,.66,64.29,1.01,73.42,1.08,75.91,1.00,70.04,.94,77.55,.62,56.25,.57,63.68,.41,63.76,.20,44.22,.18,37.58,.02,90.00
2016.11.07-15:00,.45,28.24,.58,52.24,.69,61.63,1.02,74.95,1.08,77.91,1.02,72.51,.94,79.48,.68,56.83,.57,65.48,.38,64.18,.20,46.27,.18,38.96,.02,90.00
2016.11.07-16:00,.56,37.78,.67,49.87,.75,60.89,1.02,76.06,1.07,79.38,1.01,74.54,.92,81.10,.72,58.54,.57,67.30,.36,63.36,.20,48.98,.18,40.19,.02,90.00
2016.11.07-17:00,.65,43.29,.77,52.10,.81,62.51,1.01,76.73,1.03,80.06,.98,75.73,.86,81.97,.73,60.72,.57,68.81,.34,61.52,.19,52.42,.17,41.15,.02,90.00
2016.11.07-18:00,.72,50.53,.84,56.92,.86,66.16,.99,77.22,.99,79.95,.94,76.16,.79,81.92,.74,63.43,.55,69.97,.33,59.04,.18,55.93,.16,40.89,.02,90.00
2016.11.07-19:00,.76,56.69,.88,62.03,.88,70.04,.96,76.98,.94,78.64,.89,75.67,.73,80.72,.74,66.86,.54,71.08,.32,56.43,.16,58.47,.14,38.40,.02,90.00
2016.11.07-20:00,.77,62.91,.89,66.79,.87,73.49,.93,75.83,.90,76.14,.86,74.43,.69,78.64,.72,70.89,.53,72.47,.33,54.29,.15,59.32,.13,33.54,.02,90.00
2016.11.07-21:00,.77,68.43,.88,71.55,.86,76.73,.92,74.21,.89,73.13,.85,72.84,.66,75.86,.70,74.87,.51,73.91,.34,52.85,.14,58.07,.12,28.67,.02,90.00
2016.11.07-22:00,.77,73.29,.87,76.05,.84,79.63,.91,72.70,.89,70.48,.85,71.43,.65,72.68,.68,77.99,.48,74.84,.36,51.96,.14,55.27,.13,26.28,.02,90.00
2016.11.07-23:00,.74,76.25,.85,79.57,.81,81.83,.92,71.75,.91,68.97,.87,70.75,.67,69.80,.65,79.73,.46,74.70,.37,51.36,.15,52.86,.15,27.83,.02,90.00
2016.11.07-24:00,.69,76.57,.81,81.29,.78,82.75,.93,71.37,.94,68.75,.90,70.86,.71,67.75,.63,79.97,.44,73.10,.39,50.77,.17,51.53,.17,31.75,.03,90.00
2016.11.08-01:00,.65,74.84,.75,80.79,.74,82.10,.94,71.33,.97,69.44,.93,71.51,.75,66.53,.63,79.01,.44,70.14,.40,50.33,.19,51.28,.20,36.05,.03,90.00
2016.11.08-02:00,.61,70.29,.70,78.03,.70,79.66,.95,71.31,1.00,70.35,.95,72.21,.80,65.61,.62,77.01,.45,65.92,.42,50.35,.20,52.15,.22,40.25,.04,90.00
2016.11.08-03:00,.61,65.82,.67,73.97,.68,76.27,.96,71.44,1.02,71.14,.97,72.80,.84,64.87,.62,74.37,.46,61.15,.43,50.76,.21,53.12,.23,43.28,.04,90.00
2016.11.08-04:00,.65,64.90,.68,71.07,.69,73.71,.98,71.86,1.03,71.62,.98,73.15,.87,64.40,.62,71.72,.49,57.10,.45,51.59,.21,53.48,.23,44.57,.04,90.00
2016.11.08-05:00,.68,63.83,.72,70.52,.72,72.71,.99,72.26,1.03,71.58,.97,73.10,.89,64.33,.61,69.67,.51,54.62,.46,52.76,.21,52.87,.22,44.09,.04,90.00
2016.11.08-06:00,.71,65.17,.73,71.52,.73,72.76,.99,72.18,1.03,70.81,.95,72.48,.91,64.61,.59,68.51,.54,53.95,.46,54.04,.20,51.09,.21,41.88,.03,90.00
2016.11.08-07:00,.71,66.91,.72,73.11,.72,73.13,.98,71.44,1.02,69.38,.94,71.32,.91,65.17,.58,68.16,.56,54.90,.46,55.40,.18,48.36,.19,38.35,.02,90.00
2016.11.08-08:00,.69,69.64,.69,74.83,.69,73.54,.96,70.51,1.01,68.05,.93,70.30,.92,66.36,.57,68.48,.57,56.99,.46,56.67,.18,44.74,.18,33.71,.02,90.00
2016.11.08-09:00,.66,71.31,.66,76.28,.66,73.70,.95,69.88,1.01,67.42,.92,69.88,.92,68.20,.55,68.71,.57,59.47,.45,57.79,.17,41.02,.17,28.82,.01,90.00
2016.11.08-10:00,.64,67.69,.62,77.17,.64,73.43,.94,69.81,1.01,67.58,.91,70.02,.91,70.31,.53,67.68,.56,61.61,.44,59.03,.18,38.72,.17,25.47,.01,90.00
2016.11.08-11:00,.65,63.32,.60,77.57,.62,72.84,.94,70.47,1.01,68.53,.91,70.62,.90,72.42,.53,64.82,.55,62.87,.43,60.52,.18,38.44,.17,24.92,.01,90.00
2016.11.08-12:00,.69,59.78,.58,76.79,.61,71.55,.94,71.62,1.02,69.99,.91,71.57,.90,74.37,.54,61.13,.55,63.43,.42,62.18,.19,39.85,.18,27.05,.01,90.00
2016.11.08-13:00,.74,56.71,.55,73.37,.60,68.51,.93,72.67,1.03,71.54,.92,72.71,.90,76.14,.57,58.71,.55,64.31,.41,63.89,.21,42.03,.19,30.29,.02,90.00
2016.11.08-14:00,.78,53.97,.53,67.19,.60,63.81,.94,73.40,1.04,73.12,.94,74.00,.90,77.76,.62,58.16,.56,65.70,.39,65.08,.22,44.30,.21,33.55,.02,90.00
2016.11.08-15:00,.83,51.59,.55,60.73,.62,59.43,.95,74.05,1.06,74.88,.96,75.49,.91,79.36,.67,58.85,.57,67.01,.37,65.05,.22,46.63,.22,36.75,.03,90.00
2016.11.08-16:00,.91,54.49,.62,56.68,.68,57.37,.96,74.79,1.07,76.67,.96,76.85,.89,80.74,.71,60.28,.57,68.06,.35,63.46,.22,48.96,.22,39.67,.03,90.00
2016.11.08-17:00,1.01,59.79,.72,57.14,.75,58.32,.97,75.63,1.06,78.09,.94,77.56,.85,81.46,.74,62.08,.57,68.96,.35,60.67,.22,51.15,.21,41.96,.04,90.00
2016.11.08-18:00,1.07,66.03,.80,61.12,.81,61.06,.96,76.31,1.02,78.73,.91,77.22,.80,81.07,.75,64.15,.57,69.84,.34,57.53,.21,53.23,.20,43.51,.04,90.00
2016.11.08-19:00,.97,72.91,.84,65.41,.84,64.14,.94,76.36,.98,78.36,.88,75.97,.75,79.64,.76,66.84,.57,71.04,.35,54.77,.20,54.61,.18,43.43,.03,90.00
2016.11.08-20:00,.88,76.87,.84,69.56,.85,66.84,.91,75.58,.95,77.18,.85,74.43,.72,77.77,.75,70.37,.55,72.88,.36,52.98,.19,54.55,.16,40.63,.03,90.00
2016.11.08-21:00,.83,81.06,.83,74.13,.85,69.52,.90,74.36,.93,75.85,.85,73.24,.70,75.89,.72,74.22,.53,74.87,.38,52.22,.18,52.74,.14,35.02,.02,90.00
2016.11.08-22:00,.80,86.42,.81,78.63,.86,72.25,.89,73.01,.92,74.73,.84,72.39,.68,73.74,.69,77.43,.50,76.24,.39,52.37,.17,50.36,.14,29.34,.02,90.00
2016.11.08-23:00,.77,89.93,.78,82.27,.84,74.37,.88,71.37,.90,73.55,.83,71.21,.67,70.70,.65,79.21,.47,76.46,.41,53.44,.18,49.27,.15,27.10,.02,90.00
2016.11.08-24:00,.75,94.58,.75,85.48,.83,76.76,.88,70.88,.90,73.43,.84,70.80,.68,68.21,.62,80.06,.45,75.60,.42,54.73,.19,48.22,.16,26.52,.02,90.00
2016.11.09-01:00,.69,97.50,.68,85.73,.80,77.22,.88,69.97,.90,73.06,.85,69.90,.70,65.63,.60,79.55,.44,73.60,.43,56.68,.20,49.22,.19,29.21,.02,90.00
2016.11.09-02:00,.61,99.79,.60,82.52,.77,76.37,.89,69.37,.91,72.98,.87,69.33,.75,63.99,.60,78.31,.44,70.66,.44,58.65,.22,50.75,.21,32.26,.03,90.00
2016.11.09-03:00,.56,98.64,.55,76.39,.76,75.10,.91,69.48,.93,73.19,.90,69.22,.80,63.33,.60,76.47,.46,66.80,.44,60.26,.23,52.57,.23,35.23,.03,90.00
2016.11.09-04:00,.51,96.96,.54,70.67,.76,74.57,.95,70.30,.96,73.31,.94,69.32,.86,63.32,.61,74.23,.48,62.62,.45,61.43,.24,54.24,.24,37.63,.04,90.00
2016.11.09-05:00,.48,96.34,.55,66.89,.77,74.62,.97,70.82,.97,72.53,.97,68.99,.91,63.38,.61,71.95,.50,59.14,.45,62.45,.24,55.63,.25,39.45,.04,90.00
2016.11.09-06:00,.48,95.42,.58,66.77,.77,75.95,.99,71.41,.98,71.51,.99,68.95,.95,64.20,.61,70.40,.53,57.13,.45,63.14,.23,55.62,.24,39.73,.04,90.00
2016.11.09-07:00,.48,97.22,.59,67.68,.77,77.50,.99,71.59,.99,70.33,1.01,69.11,.98,65.56,.60,69.50,.55,56.43,.44,63.50,.22,54.39,.23,38.95,.03,90.00
2016.11.09-08:00,.47,99.71,.57,68.54,.74,78.73,.99,71.62,.99,69.47,1.01,69.76,.99,67.62,.59,69.47,.57,57.24,.43,63.40,.21,51.59,.22,37.03,.03,90.00
2016.11.09-09:00,.44,102.99,.55,67.18,.70,78.32,.97,71.23,.98,68.65,1.00,70.57,.98,69.97,.58,69.92,.58,59.32,.41,63.06,.19,47.95,.21,34.79,.02,90.00
2016.11.09-10:00,.41,103.49,.54,65.58,.67,77.29,.95,71.38,.97,68.50,.98,71.94,.96,72.77,.56,70.00,.58,61.95,.40,62.67,.19,43.92,.20,32.53,.02,90.00
2016.11.09-11:00,.39,103.72,.54,64.46,.64,75.90,.93,72.02,.95,68.76,.96,73.41,.93,75.34,.53,68.44,.58,64.27,.39,62.88,.19,41.05,.19,31.42,.02,90.00
2016.11.09-12:00,.39,105.74,.54,63.57,.62,74.08,.92,72.95,.95,69.23,.94,74.72,.89,77.35,.52,65.31,.57,66.13,.38,64.00,.19,39.97,.19,31.68,.02,90.00
2016.11.09-13:00,.36,107.37,.53,61.51,.61,71.21,.92,73.92,.96,69.93,.93,75.97,.88,78.95,.54,62.18,.56,67.72,.38,65.60,.20,40.42,.20,32.98,.02,90.00
2016.11.09-14:00,.32,104.20,.51,57.38,.61,67.30,.93,75.02,.99,71.15,.95,77.55,.87,80.65,.57,60.65,.56,69.14,.37,66.70,.21,41.95,.20,35.14,.02,90.00
2016.11.09-15:00,.29,90.71,.53,51.55,.62,62.41,.93,75.97,1.02,72.68,.96,79.32,.88,82.41,.62,60.82,.57,70.48,.36,66.78,.23,44.36,.21,38.17,.03,90.00
2016.11.09-16:00,.32,75.05,.59,47.65,.67,58.65,.94,76.86,1.05,74.48,.97,81.03,.88,83.91,.66,62.07,.57,71.73,.36,65.59,.24,46.87,.22,41.05,.03,90.00
2016.11.09-17:00,.39,71.71,.66,48.27,.74,58.29,.95,77.92,1.06,76.50,.96,82.39,.86,84.72,.70,63.57,.58,72.70,.36,63.54,.24,49.20,.22,43.21,.04,90.00
2016.11.09-18:00,.45,74.84,.74,51.83,.81,60.50,.94,78.69,1.05,78.10,.93,82.73,.81,84.21,.73,64.89,.58,73.32,.37,61.54,.25,51.60,.21,44.73,.04,90.00
2016.11.09-19:00,.50,78.97,.79,56.65,.86,64.13,.93,78.90,1.02,79.04,.88,81.86,.76,82.33,.74,66.47,.57,73.86,.38,60.09,.24,53.62,.20,44.84,.04,90.00
2016.11.09-20:00,.54,83.31,.81,61.55,.90,68.23,.90,78.43,.98,79.29,.84,80.04,.72,79.64,.74,68.86,.56,74.80,.38,59.37,.24,54.50,.19,42.40,.04,90.00
2016.11.09-21:00,.56,87.53,.81,66.04,.90,72.16,.88,77.13,.94,78.86,.80,77.55,.68,76.63,.73,72.00,.54,76.31,.39,59.29,.22,54.03,.18,37.28,.03,90.00
2016.11.09-22:00,.56,92.34,.79,70.26,.90,75.60,.87,75.12,.91,77.95,.77,74.71,.66,73.44,.71,75.34,.51,78.09,.40,59.68,.21,52.75,.17,31.31,.03,90.00
2016.11.09-23:00,.57,97.52,.76,74.47,.88,78.46,.86,73.07,.89,76.97,.76,71.91,.64,70.09,.67,78.16,.48,79.46,.40,60.39,.21,51.47,.17,27.11,.02,90.00
2016.11.09-24:00,.56,101.56,.72,78.01,.86,80.48,.87,71.64,.87,76.43,.76,69.73,.65,67.06,.63,80.07,.45,79.73,.40,61.52,.21,50.75,.18,25.79,.02,90.00
2016.11.10-01:00,.53,103.01,.67,79.58,.82,81.39,.88,71.05,.87,76.62,.78,68.59,.68,65.06,.61,81.00,.43,78.48,.40,63.08,.21,50.65,.19,26.82,.02,90.00
2016.11.10-02:00,.47,101.34,.61,78.14,.78,81.28,.89,71.19,.87,77.42,.81,68.38,.72,64.17,.59,80.83,.42,75.46,.40,64.73,.22,51.35,.21,29.64,.03,90.00
2016.11.10-03:00,.42,94.41,.57,73.98,.75,80.57,.90,72.08,.87,78.44,.85,68.67,.77,64.05,.59,79.54,.42,70.91,.41,66.13,.23,52.82,.23,33.48,.03,90.00
2016.11.10-04:00,.42,82.50,.58,70.30,.74,79.97,.93,73.69,.89,79.04,.89,69.01,.84,64.35,.59,77.25,.44,65.53,.41,67.12,.24,54.67,.24,37.42,.04,90.00
2016.11.10-05:00,.48,73.07,.60,67.34,.74,79.77,.96,75.47,.89,78.73,.94,69.12,.89,64.93,.59,74.62,.47,60.73,.42,67.85,.25,56.28,.25,40.47,.04,90.00
2016.11.10-06:00,.54,69.23,.64,65.62,.75,80.06,.97,76.90,.90,77.45,.98,69.17,.94,65.88,.59,72.36,.51,57.74,.43,68.56,.25,57.03,.25,41.84,.04,90.00
2016.11.10-07:00,.60,68.05,.68,66.01,.76,81.00,.96,77.84,.90,75.58,1.00,69.39,.97,67.25,.59,70.82,.54,56.71,.43,69.26,.25,56.55,.25,41.39,.04,90.00
2016.11.10-08:00,.65,68.41,.71,67.52,.75,82.13,.95,78.12,.89,73.47,1.01,69.86,.98,68.98,.59,70.05,.57,57.31,.42,69.77,.24,54.98,.24,39.80,.04,90.00
2016.11.10-09:00,.67,69.09,.72,69.02,.72,82.85,.91,77.77,.88,71.55,1.01,70.69,.97,71.16,.58,70.16,.58,59.28,.40,69.99,.23,52.40,.23,37.52,.03,90.00
2016.11.10-10:00,.67,69.79,.72,70.30,.68,82.87,.87,76.94,.87,70.06,.99,71.93,.95,73.68,.56,70.53,.59,62.05,.38,69.96,.22,49.33,.22,35.16,.03,90.00
2016.11.10-11:00,.67,70.94,.72,71.83,.64,82.17,.83,75.75,.86,68.95,.96,73.35,.91,76.10,.54,70.02,.58,64.85,.36,69.92,.21,46.69,.21,33.52,.02,90.00
2016.11.10-12:00,.66,72.73,.71,73.95,.60,80.77,.80,74.19,.85,68.00,.94,74.57,.87,77.88,.52,67.94,.58,67.44,.34,70.29,.20,45.19,.20,32.97,.02,90.00
2016.11.10-13:00,.62,73.93,.70,75.67,.57,77.83,.79,72.27,.86,67.17,.92,75.48,.84,78.92,.52,65.04,.57,70.13,.33,71.12,.20,44.89,.20,33.35,.02,90.00
2016.11.10-14:00,.56,73.28,.67,75.92,.55,72.94,.79,70.71,.89,66.98,.92,76.54,.83,79.72,.53,62.95,.57,73.17,.32,71.75,.20,45.42,.20,34.50,.02,90.00
2016.11.10-15:00,.51,68.73,.64,73.55,.54,65.98,.82,69.77,.94,67.56,.93,77.84,.84,80.46,.57,62.31,.56,76.15,.32,71.67,.21,46.97,.21,36.85,.03,90.00
2016.11.10-16:00,.49,59.42,.61,68.49,.56,58.52,.85,69.63,.99,69.05,.95,79.49,.85,81.32,.62,62.81,.56,78.43,.32,70.60,.23,49.10,.22,39.88,.03,90.00
2016.11.10-17:00,.52,50.03,.62,63.61,.62,53.80,.88,70.46,1.03,71.51,.96,81.36,.86,82.17,.67,63.73,.55,79.32,.33,68.73,.24,51.25,.23,42.73,.04,90.00
2016.11.10-18:00,.60,46.80,.66,60.83,.70,53.37,.91,72.08,1.06,74.50,.95,83.00,.86,82.68,.71,64.75,.55,78.88,.34,66.68,.25,52.86,.23,44.49,.04,90.00
2016.11.10-19:00,.67,47.67,.73,60.44,.79,55.90,.94,73.81,1.06,77.28,.92,83.76,.83,82.45,.74,65.90,.54,77.71,.36,65.16,.26,53.88,.23,44.89,.05,90.00
2016.11.10-20:00,.73,52.34,.79,62.47,.86,59.89,.95,75.12,1.05,79.42,.87,83.26,.78,81.22,.75,67.48,.52,76.48,.37,64.37,.26,54.26,.22,43.73,.04,90.00
2016.11.10-21:00,.77,58.49,.84,65.98,.90,64.30,.95,75.77,1.01,80.85,.81,81.65,.73,79.21,.75,69.94,.51,75.89,.38,64.18,.25,53.67,.21,40.41,.04,90.00
2016.11.10-22:00,.78,64.35,.86,69.80,.92,68.20,.93,75.45,.96,81.39,.76,79.00,.69,76.39,.73,73.10,.49,75.97,.38,64.65,.24,52.47,.20,35.41,.03,90.00
2016.11.10-23:00,.78,70.18,.86,73.74,.93,71.79,.92,74.79,.91,81.42,.72,75.94,.66,73.08,.70,76.57,.46,76.19,.37,65.62,.23,51.11,.19,30.08,.03,90.00
2016.11.10-24:00,.75,75.22,.85,76.99,.92,74.69,.91,74.14,.86,81.01,.70,72.81,.65,69.57,.66,80.06,.44,76.27,.36,67.14,.22,50.18,.18,26.27,.03,90.00
2016.11.11-01:00,.70,79.00,.82,78.85,.90,76.61,.90,73.60,.82,80.11,.70,69.85,.65,66.39,.61,83.22,.41,76.07,.35,69.10,.21,50.02,.19,25.02,.02,90.00
2016.11.11-02:00,.63,80.85,.77,78.98,.86,77.65,.89,73.36,.80,79.02,.71,67.51,.69,64.26,.59,85.43,.41,75.32,.35,71.01,.22,50.63,.20,26.01,.03,90.00
2016.11.11-03:00,.54,80.62,.69,77.40,.82,78.02,.88,73.68,.80,78.12,.75,66.06,.74,63.36,.57,85.92,.41,73.55,.35,72.40,.22,52.31,.21,29.04,.03,90.00
2016.11.11-04:00,.49,76.93,.63,74.13,.77,77.91,.88,74.82,.81,77.44,.81,65.57,.81,63.52,.56,84.48,.43,70.47,.35,72.98,.24,55.06,.23,33.67,.04,90.00
2016.11.11-05:00,.48,70.93,.60,69.70,.75,77.40,.89,76.42,.83,76.50,.88,65.79,.88,64.50,.56,81.60,.45,66.62,.37,73.02,.25,58.14,.24,38.39,.04,90.00
2016.11.11-06:00,.49,66.40,.61,66.14,.74,76.91,.91,77.90,.86,74.95,.95,66.54,.94,66.09,.55,78.03,.48,63.08,.38,72.94,.26,60.66,.26,41.71,.05,90.00
2016.11.11-07:00,.51,64.62,.64,64.27,.75,76.60,.91,78.76,.88,73.04,1.00,67.76,.98,68.19,.55,74.60,.51,60.99,.39,73.15,.27,62.08,.26,42.91,.05,90.00
2016.11.11-08:00,.55,64.68,.67,63.65,.75,76.29,.90,78.70,.90,71.09,1.03,69.25,1.00,70.45,.55,71.55,.55,60.54,.40,73.83,.26,62.30,.26,42.20,.04,90.00
2016.11.11-09:00,.59,65.46,.70,63.72,.74,75.87,.88,77.83,.91,69.54,1.03,71.01,.99,72.75,.54,68.95,.57,61.48,.39,74.97,.25,61.36,.25,40.03,.04,90.00
2016.11.11-10:00,.62,66.23,.72,63.93,.73,75.09,.84,76.36,.92,68.60,1.01,73.02,.96,75.04,.54,66.95,.58,63.45,.37,76.42,.23,59.36,.24,37.09,.03,90.00
2016.11.11-11:00,.62,67.74,.73,64.19,.70,73.76,.81,74.37,.91,68.11,.98,75.09,.92,77.25,.53,65.57,.58,66.12,.34,77.91,.21,56.59,.22,34.31,.03,90.00
2016.11.11-12:00,.61,69.48,.75,64.88,.68,71.86,.78,71.83,.90,67.73,.94,76.85,.87,79.10,.53,64.45,.57,69.30,.31,79.23,.19,53.67,.21,32.61,.02,90.00
2016.11.11-13:00,.60,71.31,.76,66.13,.67,69.57,.77,68.97,.89,67.35,.90,77.88,.83,80.20,.52,63.48,.56,73.05,.29,80.01,.18,51.00,.20,32.07,.02,90.00
2016.11.11-14:00,.59,72.02,.77,67.35,.67,67.02,.78,66.61,.91,67.37,.88,78.34,.80,80.66,.53,63.12,.55,77.34,.27,79.83,.17,48.90,.19,32.60,.02,90.00
2016.11.11-15:00,.60,70.25,.76,67.50,.67,63.95,.81,65.37,.94,68.16,.88,78.69,.79,80.82,.56,63.62,.54,81.58,.26,78.42,.18,48.06,.20,34.50,.02,90.00
2016.11.11-16:00,.64,65.73,.74,66.12,.68,60.60,.85,65.53,.98,69.99,.90,79.41,.81,81.07,.60,64.81,.53,84.80,.27,75.78,.20,48.69,.21,37.62,.03,90.00
2016.11.11-17:00,.69,63.02,.74,63.45,.72,57.58,.89,66.73,1.03,72.66,.92,80.54,.83,81.40,.65,66.09,.52,85.99,.28,72.43,.23,50.48,.23,41.30,.04,90.00
2016.11.11-18:00,.74,61.62,.76,60.47,.77,55.81,.94,68.54,1.07,75.74,.94,81.79,.85,81.67,.70,67.13,.50,84.82,.30,69.20,.26,52.62,.25,44.43,.04,90.00
2016.11.11-19:00,.81,61.30,.82,58.95,.85,56.30,.98,70.86,1.08,78.97,.94,82.87,.85,81.72,.74,68.12,.49,81.77,.33,66.85,.28,54.46,.26,46.08,.05,90.00
2016.11.11-20:00,.89,62.41,.88,59.73,.93,58.74,1.01,73.43,1.07,81.86,.91,83.29,.82,81.22,.77,69.22,.48,77.73,.35,65.66,.30,55.91,.26,46.12,.05,90.00
2016.11.11-21:00,.95,64.47,.95,61.86,.99,61.88,1.02,75.70,1.03,83.82,.85,82.45,.78,79.79,.77,70.77,.48,73.86,.37,65.58,.30,57.06,.25,44.69,.05,90.00
2016.11.11-22:00,.99,67.10,.99,64.67,1.03,64.90,1.00,77.21,.96,84.46,.79,80.11,.73,77.41,.76,73.22,.47,71.15,.37,66.36,.29,57.78,.24,41.60,.05,90.00
2016.11.11-23:00,1.00,70.20,1.01,67.90,1.05,67.53,.96,77.73,.89,83.64,.74,76.48,.68,74.43,.73,76.83,.46,70.11,.37,67.77,.27,57.95,.22,36.81,.04,90.00
2016.11.11-24:00,.99,73.50,1.01,71.23,1.05,69.85,.92,77.34,.82,81.40,.71,72.31,.66,71.38,.69,81.45,.45,70.65,.35,69.61,.24,57.60,.20,31.03,.03,90.00
2016.11.12-01:00,.97,76.23,1.00,74.02,1.05,71.87,.89,76.21,.77,78.03,.70,68.43,.65,68.64,.65,86.49,.44,72.33,.33,71.67,.22,57.07,.20,26.31,.03,90.00
2016.11.12-02:00,.94,77.98,.97,75.76,1.04,73.53,.86,74.62,.74,74.14,.72,65.45,.66,66.35,.60,90.93,.43,74.52,.32,73.74,.21,56.97,.20,24.65,.03,90.00
2016.11.12-03:00,.88,78.69,.92,76.31,1.01,74.88,.83,72.89,.73,70.43,.75,63.64,.70,64.62,.56,93.23,.42,76.05,.31,75.54,.21,57.74,.20,26.37,.03,90.00
2016.11.12-04:00,.82,78.23,.86,75.75,.97,76.04,.82,71.47,.75,67.56,.80,63.15,.75,63.74,.53,92.27,.42,75.74,.31,76.84,.21,59.53,.22,30.66,.04,90.00
2016.11.12-05:00,.76,76.47,.81,74.13,.93,76.92,.83,70.60,.79,65.86,.87,63.91,.82,63.94,.50,88.27,.43,73.35,.32,77.44,.23,61.89,.24,36.05,.04,90.00
2016.11.12-06:00,.74,74.04,.78,71.89,.90,77.52,.85,70.43,.85,65.48,.94,65.77,.88,65.37,.50,82.76,.45,69.83,.34,77.23,.25,63.70,.25,40.61,.05,90.00
2016.11.12-07:00,.73,71.95,.79,69.86,.90,77.86,.89,70.71,.92,66.20,1.00,68.37,.94,67.80,.50,77.51,.48,66.80,.35,76.62,.26,64.34,.27,43.08,.05,90.00
2016.11.12-08:00,.74,70.42,.81,68.22,.90,77.74,.93,70.91,.98,67.40,1.04,71.11,.98,70.70,.51,73.40,.51,65.20,.36,76.20,.27,63.80,.27,43.34,.05,90.00
2016.11.12-09:00,.75,68.95,.84,66.70,.90,76.97,.95,70.74,1.02,68.66,1.05,73.63,.98,73.63,.52,70.35,.54,65.01,.36,76.38,.26,62.38,.27,41.87,.04,90.00
2016.11.12-10:00,.74,69.82,.87,65.42,.90,75.79,.97,70.36,1.03,69.87,1.04,75.91,.96,76.40,.52,67.85,.55,65.93,.34,77.35,.25,60.32,.26,39.19,.04,90.00
2016.11.12-11:00,.77,68.77,.91,64.62,.89,74.58,.97,69.99,1.03,71.09,1.00,78.04,.92,79.03,.52,65.80,.56,67.81,.32,78.87,.22,57.59,.24,35.68,.03,90.00
2016.11.12-12:00,.80,68.42,.95,64.30,.89,73.40,.96,69.59,1.01,72.24,.96,79.96,.86,81.48,.51,64.42,.55,70.70,.28,80.51,.20,54.41,.22,32.13,.02,90.00
2016.11.12-13:00,.84,68.37,.98,64.50,.88,72.14,.96,68.98,.99,73.05,.91,81.26,.81,83.30,.51,63.54,.53,74.51,.25,81.60,.18,51.51,.21,29.86,.02,90.00
2016.11.12-14:00,.87,69.21,.99,65.38,.87,70.89,.96,68.40,.97,73.47,.86,81.55,.75,83.83,.51,62.66,.51,78.92,.23,81.41,.17,50.14,.19,30.25,.01,90.00
2016.11.12-15:00,.89,70.51,1.00,66.76,.86,69.61,.97,68.32,.96,73.77,.82,80.92,.72,82.83,.52,61.69,.49,83.41,.22,79.57,.18,50.94,.19,33.50,.02,90.00
2016.11.12-16:00,.90,71.29,.99,67.95,.85,68.07,1.00,69.14,.96,74.50,.81,80.04,.71,80.96,.55,61.25,.47,87.07,.22,76.43,.19,52.97,.20,38.00,.02,90.00
2016.11.12-17:00,.92,71.00,1.00,68.38,.87,66.26,1.03,70.97,.98,76.06,.82,79.69,.73,79.42,.60,61.95,.46,88.80,.24,72.98,.22,55.16,.21,42.00,.03,90.00
2016.11.12-18:00,.96,70.06,1.02,68.14,.92,64.58,1.08,73.56,1.01,78.37,.84,80.01,.76,78.71,.67,63.47,.45,87.71,.27,69.92,.25,56.94,.24,44.67,.04,90.00
2016.11.12-19:00,1.01,69.42,1.06,67.89,.98,63.67,1.12,76.49,1.04,80.94,.86,80.52,.79,78.49,.73,65.20,.45,83.81,.30,67.61,.28,58.48,.26,46.32,.05,90.00
2016.11.12-20:00,1.07,69.74,1.12,68.28,1.07,63.81,1.15,79.34,1.04,83.20,.86,80.58,.81,78.25,.77,67.03,.44,78.06,.33,66.05,.30,59.88,.27,47.14,.05,90.00
2016.11.12-21:00,1.14,71.22,1.17,69.68,1.15,64.94,1.16,81.72,1.03,84.64,.85,79.73,.80,77.61,.80,69.23,.45,72.06,.35,65.19,.31,61.02,.28,46.92,.06,90.00
2016.11.12-22:00,1.19,73.63,1.21,72.05,1.22,66.67,1.14,83.25,.98,84.88,.82,77.60,.78,76.31,.80,72.02,.45,67.28,.36,65.09,.31,61.84,.26,45.35,.05,90.00
2016.11.12-23:00,1.22,76.67,1.24,75.11,1.26,68.68,1.09,83.66,.91,83.62,.78,74.04,.74,74.15,.77,75.66,.46,64.58,.36,65.87,.29,62.26,.24,41.98,.05,90.00
2016.11.12-24:00,1.23,79.86,1.24,78.34,1.29,70.87,1.03,83.03,.84,80.67,.75,69.53,.70,71.36,.74,80.43,.45,64.23,.35,67.54,.26,62.18,.22,36.49,.04,90.00
2016.11.13-01:00,1.21,82.78,1.23,81.21,1.30,73.11,.97,81.59,.79,76.27,.75,65.20,.69,68.53,.68,86.17,.45,65.77,.33,69.82,.22,61.44,.19,29.35,.03,90.00
2016.11.13-02:00,1.17,85.27,1.19,83.51,1.29,75.36,.92,79.68,.77,71.47,.77,62.19,.69,66.22,.63,91.97,.43,68.30,.31,72.54,.19,60.36,.18,23.17,.03,90.00
2016.11.13-03:00,1.11,87.34,1.13,85.37,1.26,77.68,.89,77.68,.78,67.53,.81,61.03,.71,64.80,.57,96.33,.42,70.90,.29,75.42,.18,59.39,.18,20.84,.02,90.00
2016.11.13-04:00,1.02,88.81,1.05,86.70,1.22,79.94,.87,75.85,.81,65.11,.87,61.70,.76,64.58,.51,97.54,.42,72.72,.28,77.97,.17,59.00,.20,22.86,.03,90.00
2016.11.13-05:00,.94,89.40,.97,87.24,1.18,81.99,.87,74.43,.86,64.29,.93,63.82,.82,65.56,.47,94.38,.43,73.17,.28,79.55,.19,59.60,.22,28.02,.03,90.00
2016.11.13-06:00,.87,88.78,.90,86.75,1.14,83.64,.90,73.59,.92,64.78,1.00,66.86,.88,67.43,.44,87.17,.45,72.04,.29,79.67,.21,60.79,.24,34.31,.04,90.00
2016.11.13-07:00,.84,86.76,.86,84.99,1.11,84.64,.93,73.17,.99,66.23,1.05,70.36,.93,69.88,.44,78.02,.47,70.00,.31,78.66,.24,61.96,.26,39.90,.04,90.00
2016.11.13-08:00,.83,83.37,.85,81.95,1.10,84.73,.97,72.76,1.06,68.22,1.08,73.92,.96,72.63,.46,69.83,.50,68.10,.32,77.27,.26,62.78,.28,43.83,.05,90.00
2016.11.13-09:00,.84,79.34,.87,78.31,1.09,84.00,1.01,72.16,1.11,70.37,1.09,77.22,.96,75.42,.49,64.06,.52,66.95,.32,76.11,.27,63.15,.29,45.94,.05,90.00
2016.11.13-10:00,.86,76.34,.90,75.02,1.07,82.81,1.04,71.43,1.13,72.48,1.07,80.11,.95,78.05,.52,60.54,.54,66.78,.31,75.60,.26,63.13,.28,46.32,.04,90.00
2016.11.13-11:00,.88,73.65,.94,72.63,1.06,81.49,1.06,70.72,1.14,74.47,1.03,82.58,.90,80.39,.55,58.69,.55,67.65,.30,75.87,.24,62.63,.25,44.96,.03,90.00
2016.11.13-12:00,.91,71.41,.98,71.32,1.04,80.15,1.07,70.16,1.12,76.37,.96,84.60,.85,82.39,.56,58.32,.55,69.86,.27,76.68,.21,61.35,.22,41.62,.02,90.00
2016.11.13-13:00,.95,70.07,1.03,71.04,1.03,78.83,1.08,69.82,1.09,78.03,.90,85.88,.79,83.76,.57,59.26,.54,73.64,.23,77.45,.18,58.96,.19,36.46,.01,90.00
2016.11.13-14:00,.98,69.94,1.05,71.74,1.01,77.63,1.09,69.76,1.05,79.14,.83,85.86,.74,83.87,.57,60.98,.52,78.82,.21,77.37,.16,55.80,.16,31.08,.01,90.00
2016.11.13-15:00,.99,70.97,1.05,73.27,.98,76.65,1.10,70.15,1.02,79.54,.79,84.13,.70,82.10,.57,62.80,.49,84.81,.19,75.86,.15,53.28,.15,28.33,.01,90.00
2016.11.13-16:00,.98,72.31,1.03,74.91,.96,75.56,1.12,71.02,1.00,79.36,.76,80.89,.69,78.65,.58,64.21,.46,90.51,.20,73.57,.16,53.16,.15,30.18,.01,90.00
2016.11.13-17:00,.98,73.22,1.01,75.93,.96,74.17,1.15,72.55,1.00,79.17,.76,77.26,.71,74.91,.60,65.23,.43,94.25,.22,71.49,.18,55.02,.17,35.22,.02,90.00